Total_Precipitation_Accumulation
1.81 1.95 2.11 2.21 2.11 1.84 1.72 1.63 1.51 1.30 1.11 0.98 0.82 0.65 0.74 0.82 0.97 0.80 0.65 0.65 0.49 0.33 0.25 0.25 0.24 0.21 0.23 0.27 0.33 0.35 0.38 0.37 0.32 0.25 0.20 0.18 0.15 0.13
1.66 1.77 1.81 1.89 2.08 2.04 1.84 1.75 1.61 1.41 1.24 1.05 0.95 0.80 0.87 0.86 0.97 0.79 0.78 0.85 0.62 0.45 0.32 0.28 0.25 0.20 0.16 0.15 0.14 0.14 0.16 0.17 0.20 0.20 0.19 0.17 0.16 0.18
1.31 1.41 1.53 1.80 2.12 2.15 2.10 1.95 1.78 1.58 1.30 1.15 0.92 0.77 0.94 1.01 0.99 0.87 0.83 0.79 0.63 0.57 0.45 0.36 0.30 0.24 0.20 0.15 0.11 0.10 0.09 0.09 0.10 0.12 0.13 0.14 0.16 0.17
1.07 1.17 1.30 1.60 1.97 2.19 2.28 2.18 2.00 1.81 1.62 1.46 1.15 0.85 0.87 1.11 1.24 1.16 0.96 0.83 0.75 0.73 0.65 0.52 0.41 0.33 0.26 0.21 0.16 0.14 0.10 0.09 0.07 0.08 0.11 0.13 0.15 0.16
1.09 1.13 1.15 1.32 1.53 1.77 1.96 2.07 2.05 2.01 1.92 1.67 1.41 1.14 1.00 1.04 1.25 1.25 1.13 1.08 0.96 0.91 0.92 0.83 0.69 0.56 0.44 0.35 0.29 0.22 0.17 0.14 0.12 0.11 0.11 0.13 0.15 0.17
0.89 0.96 1.03 1.06 1.19 1.36 1.50 1.69 1.89 2.08 2.12 1.95 1.69 1.42 1.27 1.09 1.12 1.24 1.30 1.22 1.14 1.00 0.97 0.93 0.92 0.83 0.68 0.55 0.45 0.36 0.32 0.29 0.25 0.22 0.20 0.19 0.18 0.18
0.82 0.81 0.86 0.88 0.92 1.07 1.13 1.36 1.68 1.92 2.00 2.03 1.90 1.62 1.39 1.19 0.96 0.99 1.19 1.37 1.35 1.27 1.26 1.10 1.01 0.91 0.83 0.77 0.70 0.60 0.51 0.45 0.40 0.36 0.34 0.31 0.30 0.30
0.81 0.80 0.81 0.74 0.73 0.76 0.87 1.01 1.30 1.49 1.60 1.64 1.64 1.50 1.33 1.18 1.09 1.05 1.06 1.13 1.20 1.13 1.13 1.20 1.16 1.06 1.00 0.92 0.95 0.96 0.86 0.75 0.66 0.59 0.55 0.51 0.50 0.48
0.82 0.85 0.82 0.77 0.79 0.79 0.76 0.76 0.84 1.02 1.20 1.38 1.40 1.30 1.36 1.26 1.15 1.06 1.05 1.01 0.95 1.04 1.08 1.12 1.14 1.11 1.07 1.07 1.11 1.04 0.97 0.88 0.79 0.73 0.68 0.62 0.58 0.53
0.81 0.76 0.81 0.82 0.86 0.90 0.79 0.81 0.77 0.79 0.87 0.92 1.06 1.26 1.38 1.51 1.45 1.31 1.29 1.23 1.14 1.11 1.10 1.09 1.01 0.97 0.94 0.95 1.00 0.89 0.81 0.78 0.77 0.74 0.69 0.63 0.57 0.53
0.82 0.81 0.87 0.88 1.01 1.02 0.90 0.94 0.90 0.85 0.83 0.93 1.04 1.14 1.22 1.32 1.41 1.38 1.32 1.26 1.19 1.10 1.01 0.96 0.91 0.88 0.88 0.82 0.81 0.82 0.73 0.67 0.63 0.61 0.60 0.59 0.57 0.58
0.95 0.94 1.11 1.04 1.00 0.92 0.88 1.01 0.99 0.83 0.74 0.77 0.83 0.91 0.94 1.03 1.13 1.13 1.18 1.20 1.13 1.05 0.87 0.80 0.84 0.84 0.88 0.79 0.72 0.69 0.66 0.67 0.63 0.57 0.53 0.53 0.57 0.57
1.03 0.99 0.92 1.02 0.94 0.85 0.84 0.90 1.03 0.89 0.79 0.80 0.79 0.80 0.82 0.85 0.89 0.94 0.99 1.04 1.04 0.96 0.81 0.77 0.78 0.77 0.70 0.64 0.63 0.61 0.58 0.55 0.57 0.60 0.62 0.61 0.60 0.58
1.00 0.90 0.80 1.01 0.95 0.84 0.76 0.78 0.90 0.94 0.89 0.90 0.88 0.80 0.76 0.74 0.72 0.76 0.82 0.88 0.91 0.88 0.83 0.76 0.76 0.71 0.65 0.59 0.56 0.57 0.59 0.56 0.55 0.55 0.56 0.67 0.69 0.69
0.86 0.87 0.88 0.90 0.81 0.75 0.84 0.85 0.85 0.87 0.94 0.96 0.83 0.67 0.61 0.60 0.64 0.73 0.84 0.90 0.94 0.87 0.80 0.77 0.74 0.74 0.70 0.61 0.54 0.53 0.56 0.56 0.53 0.51 0.52 0.55 0.60 0.68
0.66 0.70 0.74 0.70 0.69 0.71 0.77 0.85 0.86 0.89 0.90 0.85 0.73 0.59 0.55 0.56 0.59 0.63 0.73 0.85 0.98 0.98 0.94 0.93 0.90 0.85 0.82 0.72 0.63 0.58 0.56 0.54 0.54 0.55 0.54 0.52 0.52 0.55
0.71 0.65 0.68 0.67 0.66 0.65 0.68 0.69 0.71 0.70 0.70 0.68 0.65 0.63 0.62 0.61 0.57 0.57 0.61 0.65 0.68 0.71 0.77 0.86 0.95 0.99 0.94 0.88 0.83 0.71 0.65 0.63 0.60 0.63 0.63 0.59 0.53 0.49
0.95 0.98 0.98 0.92 0.83 0.71 0.62 0.53 0.49 0.51 0.55 0.60 0.61 0.58 0.57 0.58 0.59 0.59 0.61 0.64 0.61 0.56 0.56 0.62 0.75 0.95 1.05 0.97 0.84 0.75 0.72 0.67 0.65 0.68 0.67 0.62 0.53 0.51
1.02 1.03 1.01 0.87 0.73 0.65 0.53 0.39 0.33 0.34 0.40 0.43 0.47 0.51 0.49 0.49 0.53 0.54 0.53 0.56 0.58 0.54 0.54 0.56 0.62 0.71 0.80 0.75 0.67 0.62 0.64 0.66 0.70 0.70 0.67 0.62 0.54 0.52
0.72 0.71 0.64 0.55 0.47 0.39 0.35 0.30 0.23 0.25 0.31 0.32 0.36 0.38 0.38 0.40 0.43 0.48 0.48 0.47 0.49 0.47 0.45 0.46 0.47 0.48 0.51 0.55 0.55 0.52 0.53 0.57 0.60 0.57 0.53 0.55 0.54 0.61
0.39 0.32 0.26 0.22 0.20 0.17 0.18 0.18 0.16 0.17 0.21 0.25 0.28 0.29 0.29 0.31 0.35 0.39 0.42 0.45 0.44 0.43 0.42 0.38 0.37 0.45 0.47 0.54 0.55 0.44 0.42 0.52 0.55 0.51 0.50 0.55 0.56 0.55
0.16 0.14 0.12 0.09 0.09 0.08 0.08 0.09 0.09 0.12 0.15 0.18 0.19 0.23 0.25 0.25 0.28 0.31 0.33 0.35 0.35 0.32 0.31 0.33 0.37 0.44 0.46 0.48 0.46 0.40 0.38 0.44 0.58 0.69 0.61 0.55 0.47 0.41
0.09 0.10 0.07 0.07 0.06 0.06 0.08 0.10 0.11 0.13 0.13 0.16 0.17 0.18 0.20 0.23 0.25 0.27 0.30 0.30 0.32 0.32 0.30 0.30 0.33 0.38 0.41 0.43 0.45 0.47 0.48 0.48 0.51 0.59 0.65 0.71 0.58 0.40